Météo par heure à Jujuy

Ce jour, 17 Juin, Jeudi

Heure Température Précipitation Vent Pression Humidité
00:00 +6°C° 0 mm 1 m/s 652 mmHg 87%
01:00 +6°C° 0 mm 1 m/s 652 mmHg 87%
02:00 +5°C° 0 mm 0 m/s 652 mmHg 86%
03:00 +5°C° 0 mm 0 m/s 652 mmHg 86%
04:00 +4°C° 0 mm 0 m/s 651 mmHg 85%
05:00 +4°C° 0 mm 0 m/s 651 mmHg 84%
06:00 +4°C° 0 mm 0 m/s 651 mmHg 83%
07:00 +5°C° 0 mm 0 m/s 652 mmHg 81%
08:00 +5°C° 0 mm 0 m/s 652 mmHg 80%
09:00 +7°C° 0 mm 1 m/s 652 mmHg 78%
10:00 +7°C° 0 mm 1 m/s 652 mmHg 75%
11:00 +8°C° 0 mm 1 m/s 652 mmHg 73%
12:00 +8°C° 0 mm 1 m/s 652 mmHg 71%
13:00 +9°C° 0 mm 1 m/s 651 mmHg 70%
14:00 +9°C° 0 mm 1 m/s 650 mmHg 68%
15:00 +9°C° 0 mm 1 m/s 650 mmHg 70%
16:00 +8°C° 0 mm 1 m/s 650 mmHg 73%
17:00 +7°C° 0 mm 1 m/s 650 mmHg 75%
18:00 +6°C° 0 mm 0 m/s 650 mmHg 76%
19:00 +5°C° 0 mm 0 m/s 651 mmHg 78%
20:00 +5°C° 0 mm 0 m/s 651 mmHg 79%
21:00 +5°C° 0 mm 0 m/s 651 mmHg 79%
22:00 +5°C° 0 mm 0 m/s 651 mmHg 79%
23:00 +5°C° 0 mm 0 m/s 651 mmHg 79%

Demain, 18 Juin, Vendredi

Heure Température Précipitation Vent Pression Humidité
00:00 +4°C° 0 mm 0 m/s 651 mmHg 80%
01:00 +4°C° 0 mm 0 m/s 651 mmHg 80%
02:00 +4°C° 0 mm 0 m/s 650 mmHg 81%
03:00 +4°C° 0 mm 0 m/s 650 mmHg 81%
04:00 +4°C° 0 mm 0 m/s 650 mmHg 81%
05:00 +4°C° 0 mm 0 m/s 650 mmHg 81%
06:00 +5°C° 0 mm 1 m/s 650 mmHg 79%
07:00 +6°C° 0 mm 1 m/s 651 mmHg 76%
08:00 +6°C° 0 mm 1 m/s 651 mmHg 74%
09:00 +8°C° 0 mm 1 m/s 651 mmHg 68%
10:00 +9°C° 0 mm 1 m/s 651 mmHg 62%
11:00 +11°C° 0 mm 1 m/s 651 mmHg 56%
12:00 +12°C° 0 mm 2 m/s 650 mmHg 54%
13:00 +12°C° 0 mm 2 m/s 650 mmHg 51%
14:00 +13°C° 0 mm 2 m/s 649 mmHg 48%
15:00 +12°C° 0 mm 2 m/s 649 mmHg 51%
16:00 +10°C° 0 mm 2 m/s 648 mmHg 55%
17:00 +9°C° 0 mm 2 m/s 648 mmHg 59%
18:00 +8°C° 0 mm 2 m/s 649 mmHg 64%
19:00 +8°C° 0 mm 1 m/s 649 mmHg 70%
20:00 +6°C° 0 mm 1 m/s 650 mmHg 76%
21:00 +6°C° 0 mm 1 m/s 650 mmHg 76%
22:00 +6°C° 0 mm 1 m/s 650 mmHg 77%
23:00 +6°C° 0 mm 1 m/s 650 mmHg 77%

Après-demain, 19 Juin, Samedi

Heure Température Précipitation Vent Pression Humidité
00:00 +6°C° 0 mm 1 m/s 650 mmHg 77%
01:00 +6°C° 0 mm 1 m/s 650 mmHg 76%
02:00 +6°C° 0 mm 1 m/s 650 mmHg 76%
03:00 +6°C° 0 mm 1 m/s 650 mmHg 76%
04:00 +6°C° 0 mm 1 m/s 650 mmHg 75%
05:00 +5°C° 0 mm 1 m/s 650 mmHg 75%
06:00 +6°C° 0 mm 1 m/s 651 mmHg 72%
07:00 +7°C° 0 mm 1 m/s 651 mmHg 68%
08:00 +7°C° 0 mm 1 m/s 652 mmHg 65%
09:00 +9°C° 0 mm 1 m/s 652 mmHg 58%
10:00 +11°C° 0 mm 1 m/s 652 mmHg 52%
11:00 +14°C° 0 mm 1 m/s 652 mmHg 45%
12:00 +14°C° 0 mm 2 m/s 652 mmHg 43%
13:00 +15°C° 0 mm 2 m/s 651 mmHg 41%
14:00 +16°C° 0 mm 2 m/s 651 mmHg 39%
15:00 +15°C° 0 mm 2 m/s 651 mmHg 43%
16:00 +14°C° 0 mm 2 m/s 650 mmHg 47%
17:00 +13°C° 0 mm 1 m/s 650 mmHg 50%
18:00 +11°C° 0 mm 1 m/s 650 mmHg 54%
19:00 +10°C° 0 mm 1 m/s 650 mmHg 59%
20:00 +8°C° 0 mm 1 m/s 650 mmHg 63%
21:00 +7°C° 0 mm 2 m/s 650 mmHg 63%
22:00 +7°C° 0 mm 2 m/s 650 mmHg 63%
23:00 +6°C° 0 mm 2 m/s 650 mmHg 63%

20 Juin, Dimanche

Heure Température Précipitation Vent Pression Humidité
00:00 +6°C° 0 mm 2 m/s 650 mmHg 64%
01:00 +6°C° 0 mm 2 m/s 649 mmHg 64%
02:00 +6°C° 0 mm 2 m/s 649 mmHg 65%
03:00 +6°C° 0 mm 2 m/s 648 mmHg 65%
04:00 +6°C° 0 mm 2 m/s 648 mmHg 65%
05:00 +6°C° 0 mm 2 m/s 648 mmHg 65%
06:00 +7°C° 0 mm 2 m/s 648 mmHg 63%
07:00 +7°C° 0 mm 2 m/s 648 mmHg 61%
08:00 +9°C° 0 mm 1 m/s 649 mmHg 59%
09:00 +11°C° 0 mm 1 m/s 649 mmHg 53%
10:00 +13°C° 0 mm 1 m/s 649 mmHg 47%
11:00 +15°C° 0 mm 1 m/s 649 mmHg 41%
12:00 +16°C° 0 mm 1 m/s 648 mmHg 39%
13:00 +18°C° 0 mm 1 m/s 648 mmHg 37%
14:00 +18°C° 0 mm 2 m/s 647 mmHg 35%
15:00 +17°C° 0 mm 2 m/s 647 mmHg 38%
16:00 +16°C° 0 mm 2 m/s 647 mmHg 42%
17:00 +14°C° 0 mm 2 m/s 646 mmHg 45%
18:00 +13°C° 0 mm 2 m/s 647 mmHg 49%
19:00 +12°C° 0 mm 2 m/s 647 mmHg 53%
20:00 +9°C° 0 mm 3 m/s 647 mmHg 57%
21:00 +9°C° 0 mm 3 m/s 647 mmHg 56%
22:00 +9°C° 0 mm 3 m/s 647 mmHg 56%
23:00 +9°C° 0 mm 2 m/s 647 mmHg 56%

21 Juin, Lundi

Heure Température Précipitation Vent Pression Humidité
00:00 +9°C° 0 mm 2 m/s 647 mmHg 55%
01:00 +8°C° 0 mm 2 m/s 647 mmHg 55%
02:00 +8°C° 0 mm 2 m/s 647 mmHg 55%
03:00 +8°C° 0 mm 3 m/s 647 mmHg 54%
04:00 +8°C° 0 mm 3 m/s 646 mmHg 53%
05:00 +8°C° 0 mm 3 m/s 646 mmHg 53%
06:00 +9°C° 0 mm 3 m/s 647 mmHg 49%
07:00 +9°C° 0 mm 2 m/s 647 mmHg 46%
08:00 +10°C° 0 mm 2 m/s 648 mmHg 42%
09:00 +14°C° 0 mm 2 m/s 648 mmHg 37%
10:00 +17°C° 0 mm 2 m/s 649 mmHg 32%
11:00 +20°C° 0 mm 1 m/s 649 mmHg 27%
12:00 +21°C° 0 mm 1 m/s 649 mmHg 27%
13:00 +21°C° 0 mm 2 m/s 649 mmHg 27%
14:00 +21°C° 0 mm 2 m/s 648 mmHg 26%
15:00 +19°C° 0 mm 2 m/s 648 mmHg 32%
16:00 +19°C° 0 mm 1 m/s 648 mmHg 38%
17:00 +16°C° 0 mm 1 m/s 648 mmHg 44%
18:00 +15°C° 0 mm 1 m/s 648 mmHg 45%
19:00 +13°C° 0 mm 2 m/s 648 mmHg 46%
20:00 +12°C° 0 mm 2 m/s 648 mmHg 48%
21:00 +10°C° 0 mm 2 m/s 648 mmHg 48%
22:00 +10°C° 0 mm 2 m/s 648 mmHg 48%
23:00 +10°C° 0 mm 2 m/s 648 mmHg 48%

22 Juin, Mardi

Heure Température Précipitation Vent Pression Humidité
00:00 +10°C° 0 mm 2 m/s 648 mmHg 49%
01:00 +9°C° 0 mm 2 m/s 648 mmHg 50%
02:00 +9°C° 0 mm 2 m/s 647 mmHg 51%
03:00 +9°C° 0 mm 2 m/s 647 mmHg 49%
04:00 +9°C° 0 mm 2 m/s 647 mmHg 47%
05:00 +9°C° 0 mm 2 m/s 647 mmHg 44%
06:00 +10°C° 0 mm 2 m/s 647 mmHg 44%
07:00 +10°C° 0 mm 2 m/s 648 mmHg 43%
08:00 +12°C° 0 mm 2 m/s 648 mmHg 42%
09:00 +14°C° 0 mm 2 m/s 648 mmHg 39%
10:00 +17°C° 0 mm 2 m/s 649 mmHg 36%
11:00 +21°C° 0 mm 1 m/s 649 mmHg 33%
12:00 +20°C° 0 mm 2 m/s 648 mmHg 32%
13:00 +21°C° 0 mm 2 m/s 648 mmHg 31%
14:00 +23°C° 0 mm 2 m/s 648 mmHg 30%
15:00 +21°C° 0 mm 2 m/s 647 mmHg 34%
16:00 +20°C° 0 mm 1 m/s 647 mmHg 38%
17:00 +19°C° 0 mm 1 m/s 647 mmHg 42%
18:00 +16°C° 0 mm 2 m/s 646 mmHg 46%
19:00 +14°C° 0 mm 2 m/s 646 mmHg 50%
20:00 +13°C° 0 mm 2 m/s 646 mmHg 54%
21:00 +12°C° 0 mm 2 m/s 646 mmHg 53%
22:00 +12°C° 0 mm 2 m/s 646 mmHg 53%
23:00 +11°C° 0 mm 3 m/s 646 mmHg 53%
Voir plus

Nous avons besoin de votre consentement

Meteoprog et ses fournisseurs de services peuvent stocker et accéder à des données personnelles telles que des cookies, des identifiants d'appareils ou d'autres technologies similaires sur votre appareil et traiter ces données pour personnaliser le contenu et les publicités, ainsi que pour fournir des fonctionnalités de médias sociaux et analyser le trafic.

  • Stocker et/ou accéder à des informations sur votre appareil

    Des cookies, des identifiants d'appareils ou d'autres informations peuvent être stockés ou accessibles sur votre appareil aux fins indiquées ci-dessus.

  • Annonces et contenus personnalisés, mesure des annonces et des contenus, connaissance de l'audience et développement de produits

    Les annonces et le contenu peuvent être personnalisés en fonction d'un profil. D'autres données peuvent être ajoutées pour mieux personnaliser les annonces et le contenu. Les performances des publicités et du contenu peuvent être mesurées. Il est possible d'obtenir des informations sur le public qui a vu les publicités et le contenu. Ces données peuvent être utilisées pour développer ou améliorer l'expérience de l'utilisateur, les systèmes et les logiciels.

En cliquant sur "J'accepte", vous autorisez l'utilisation de cookies, des identifiants d'appareils, des balises web ou d'autres technologies similaires. Vos paramètres peuvent être modifiés dans le navigateur de votre appareil.

Dans certains cas, des intérêts légitimes peuvent être invoqués plutôt qu'un consentement. Vous pouvez en savoir plus à ce sujet dans notre Politique de confidentialité et de cookies.